This is the latest recevied weather packets stored in our database for station/object F1AGU-13. If no packets are shown the sender has not sent any weather packets the latest 10 day(s).
| Time | Temp. | Humidity | Pressure | Rain* | Wind** | Luminosity | Snow |
|---|---|---|---|---|---|---|---|
| 1787781616 | 17.22° C | 79% | 1017.1 hPa | 0 mm | - | - | - |
| 1787781017 | 17.22° C | 79% | 1017.4 hPa | 0 mm | - | - | - |
| 1787780417 | 17.78° C | 78% | 1017.5 hPa | 0 mm | - | - | - |
| 1787779817 | 17.78° C | 77% | 1017.5 hPa | 0 mm | - | - | - |
| 1787779217 | 17.78° C | 78% | 1017.5 hPa | 0 mm | - | - | - |
| 1787778617 | 17.22° C | 78% | 1017.4 hPa | 0 mm | - | - | - |
| 1787778017 | 17.78° C | 77% | 1017.2 hPa | 0 mm | - | - | - |
| 1787777417 | 17.78° C | 78% | 1017.2 hPa | 0 mm | - | - | - |
| 1787776817 | 17.78° C | 78% | 1017.1 hPa | 0 mm | - | - | - |
| 1787776216 | 17.78° C | 78% | 1017 hPa | 0 mm | - | - | - |
| 1787775616 | 17.78° C | 78% | 1017 hPa | 0 mm | - | - | - |
| 1787775017 | 17.78° C | 78% | 1017 hPa | 0 mm | - | - | - |
| 1787774417 | 17.78° C | 78% | 1016.4 hPa | 0 mm | - | - | - |
| 1787773816 | 17.78° C | 79% | 1016.4 hPa | 0 mm | - | - | - |
| 1787773217 | 17.78° C | 80% | 1016.5 hPa | 0 mm | - | - | - |
| 1787772616 | 18.33° C | 80% | 1016.1 hPa | 0 mm | - | - | - |
| 1787772017 | 18.33° C | 81% | 1016.4 hPa | 0 mm | - | - | - |
| 1787771416 | 18.33° C | 81% | 1016.3 hPa | 0 mm | - | - | - |
| 1787770816 | 18.89° C | 80% | 1016.2 hPa | 0 mm | - | - | - |
| 1787770216 | 18.89° C | 80% | 1016 hPa | 0 mm | - | - | - |
| 1787769616 | 19.44° C | 80% | 1016.2 hPa | 0 mm | - | - | - |
| 1787769016 | 19.44° C | 79% | 1016.1 hPa | 0 mm | - | - | - |
| 1787768416 | 20° C | 80% | 1016.3 hPa | 0 mm | - | - | - |
| 1787767816 | 20.56° C | 79% | 1016.1 hPa | 0 mm | - | - | - |
| 1787767216 | 21.11° C | 77% | 1016.3 hPa | 0 mm | - | - | - |
* Rain latest hour (hover to see other rain measurements)
** Current wind speed in m/s (hover to see current wind gust speed)